Location: New Mesquite
(33.1168°N, 96.4336°W)
Time: 20:04:55
(UTC+00:00)

OPS-SAT - Pass Details

Date: 11 October 2022
Orbit: 486 x 504 km, 97.5° (Epoch: 05 December)

Event Time Altitude Azimuth Distance (km) Brightness Sun altitude
Rises 10:55:05 0° 129° (SE) 2,573 ? -20.1°
Reaches altitude 10° 10:57:52 10° 105° (ESE) 1,701 ? -19.5°
Maximum altitude 10:59:58 15° 70° (ENE) 1,428 ? -19.0°
Drops below altitude 10° 11:02:06 10° 34° (NE) 1,716 ? -18.6°
Sets 11:04:54 0° 11° (N) 2,611 ? -18.0°
